[[{"header":{"parameterUnit":"m.s-1","parameterCategory":1,"la1":30.2991,"la2":30.254,"lo1":-89.0895,"lo2":-89.0444,"dy":0.0017,"dx":0.0017,"nx":28,"ny":28,"refTime":"2024-05-17T09:00:00:Z","depth":0,"parameterNumber":2,"parameterNumberName":"U-component_of_WINDS"},"data":[0,0,0,0,0,0,0,0,0,0,0,0,0,0,0,0,0,0,0,0,0,0,0,0,0,0,0,0,0,0,0,0,0,0,0,0,0,0,0,0,0,0,0,0,0,0,0,0,0,0,0,0,0,0,0,0,0,0,-4.2622,-4.2624,0,-4.2833,-4.2835,-4.2838,-4.2903,-4.2902,-4.2901,-4.29,-4.3112,-4.3118,-4.3125,0,0,0,0,0,0,0,0,0,0,0,0,0,-4.2274,-4.228,-4.2622,-4.2624,-4.2627,-4.2832,-4.2835,-4.2838,-4.2903,-4.2902,-4.2901,-4.29,-4.311,-4.3118,-4.3125,0,0,0,0,0,0,0,0,0,0,0,0,0,-4.2449,-4.2282,-4.2621,-4.2684,-4.2692,-4.2832,-4.2835,-4.2839,-4.2903,-4.2902,-4.29,-4.2899,-4.3107,-4.3117,-4.3127,-4.3217,0,0,-4.3157,-4.3161,0,0,0,0,0,0,0,0,-4.2439,-4.2461,-4.2672,-4.268,-4.2689,-4.284,-4.279,-4.2966,-4.2904,-4.2823,-4.29,-4.2898,-4.3022,-4.3039,-4.3082,-4.3227,-4.3236,-4.3158,-4.3164,-4.3168,-4.3171,0,0,0,0,0,0,0,-4.2427,-4.2453,-4.2705,-4.2675,-4.2686,-4.2702,-4.2725,-4.2824,-4.2928,-4.283,-4.2835,-4.286,-4.3027,-4.3072,-4.3087,-4.324,-4.3157,-4.3166,-4.3172,-4.3176,-4.3472,-4.3474,0,0,0,0,0,0,-4.2404,-4.2442,-4.2698,-4.2711,-4.2558,-4.2709,-4.2735,-4.2793,-4.2928,-4.2947,-4.2861,-4.2862,-4.3056,-4.3076,-4.3095,-4.3211,-4.3168,-4.3177,-4.3183,-4.347,-4.3473,-4.3475,0,0,0,0,0,0,-4.2396,-4.2426,-4.269,-4.2578,-4.2613,-4.2717,-4.2781,-4.2798,-4.2844,-4.2951,-4.2969,-4.2888,-4.3056,-4.3081,-4.3187,-4.3219,-4.3181,-4.319,-4.3468,-4.3471,-4.3474,-4.3442,0,0,0,0,0,0,-4.2386,-4.2423,-4.2459,-4.2579,-4.2619,-4.2779,-4.2783,-4.2803,-4.2861,-4.2865,-4.2981,-4.2999,-4.3057,-4.3172,-4.3197,-4.3232,-4.3198,-4.3466,-4.3469,-4.3473,-4.3441,-4.3444,-4.3446,0,0,0,0,0,-4.2373,-4.244,-4.246,-4.2491,-4.2666,-4.278,-4.2803,-4.2869,-4.2863,-4.29,-4.2969,-4.2996,-4.3212,-4.3182,-4.3211,-4.3249,-4.3464,-4.3468,-4.3473,-4.3439,-4.3443,-4.3446,0,0,0,0,0,0,-4.2318,-4.2457,-4.248,-4.2588,-4.2672,-4.2791,-4.2839,-4.287,-4.2956,-4.2956,-4.3033,-4.3059,-4.3159,-4.3216,-4.318,-4.3346,-4.3339,-4.3349,-4.3304,-4.3309,-4.3311,-4.3294,-4.3206,0,0,0,0,0,-4.2319,-4.2402,-4.2518,-4.2602,-4.2643,-4.2734,-4.2786,-4.283,-4.2919,-4.2955,-4.3032,-4.3117,-4.3205,-4.326,-4.3347,-4.3451,-4.3477,-4.3492,-4.3494,-4.3496,-4.3503,-4.3563,-4.3571,-4.3489,-4.3489,-4.3489,0,0,-4.2321,-4.2407,-4.2453,-4.2593,-4.2663,-4.2746,-4.2763,-4.2849,-4.2912,-4.2968,-4.3072,-4.3133,-4.3233,-4.3339,-4.3389,-4.3388,-4.3532,-4.3501,-4.3502,-4.3508,-4.3568,-4.3576,-4.3582,-4.3492,-4.3492,-4.3491,0,0,-4.2366,-4.2439,-4.2518,-4.2589,-4.2696,-4.2757,-4.2776,-4.2891,-4.2934,-4.3041,-4.3085,-4.3161,-4.331,-4.338,-4.3435,-4.3511,-4.3538,-4.3537,-4.355,-4.3607,-4.3614,-4.362,-4.3646,-4.3655,-4.3545,-4.3545,-4.3545,0,-4.2353,-4.2481,-4.2553,-4.2639,-4.2699,-4.2757,-4.2837,-4.2902,-4.3031,-4.3071,-4.307,-4.326,-4.3331,-4.3454,-4.3473,-4.3517,-4.354,-4.3522,-4.3607,-4.3614,-4.3621,-4.3647,-4.3657,-4.3544,-4.3544,-4.3544,-4.3544,0,-4.2461,-4.2549,-4.2599,-4.2725,-4.2791,-4.2873,-4.2958,-4.3016,-4.3056,-4.3117,-4.3226,-4.3315,-4.3421,-4.3454,-4.3492,-4.3584,-4.358,-4.3592,-4.3587,-4.3626,-4.3652,-4.3663,-4.3542,-4.3543,-4.3543,-4.3543,0,0,-4.2472,-4.264,-4.2657,-4.2716,-4.284,-4.2909,-4.2995,-4.3101,-4.3149,-4.3238,-4.3311,-4.3438,-4.3451,-4.3514,-4.3561,-4.3612,-4.3667,-4.3618,-4.3622,-4.3623,-4.3773,-4.3761,-4.3771,-4.3688,-4.369,-4.3692,-4.3764,0,-4.2532,-4.2687,-4.2757,-4.2881,-4.2964,-4.3022,-4.3096,-4.3181,-4.3241,-4.332,-4.3386,-4.3475,-4.3486,-4.3524,-4.3577,-4.3648,-4.3697,-4.3645,-4.3755,-4.3758,-4.3725,-4.3785,-4.3772,-4.3836,-4.3774,-4.3776,-4.3777,0,-4.2621,-4.2712,-4.2844,-4.2961,-4.2999,-4.3064,-4.3168,-4.3243,-4.334,-4.3381,-4.3453,-4.3499,-4.3591,-4.3583,-4.3711,-4.3674,-4.3724,-4.3766,-4.377,-4.378,-4.3767,-4.3794,-4.3858,-4.3866,-4.3794,-4.3793,-4.3792,0,-4.2615,-4.2771,-4.287,-4.2919,-4.3058,-4.3103,-4.3163,-4.3259,-4.3319,-4.341,-4.345,-4.355,-4.3604,-4.368,-4.3752,-4.3739,-4.3873,-4.3871,-4.3908,-4.3907,-4.3931,-4.3928,-4.4,-4.3967,-4.3967,-4.3967,-4.3967,0,-4.2673,-4.2751,-4.287,-4.293,-4.3021,-4.3101,-4.3188,-4.3252,-4.3338,-4.3413,-4.347,-4.3538,-4.3631,-4.3711,-4.3769,-4.3866,-4.389,-4.3925,-4.3938,-4.3918,-4.3914,-4.395,-4.3946,-4.397,-4.3969,-4.3968,-4.3968,0,-4.2679,-4.2762,-4.2875,-4.2999,-4.3032,-4.3092,-4.3198,-4.326,-4.3325,-4.3418,-4.3445,-4.3546,-4.3644,-4.3725,-4.3853,-4.3892,-4.3993,-4.401,-4.396,-4.3966,-4.3999,-4.3994,-4.4095,-4.4112,-4.4069,-4.4069,-4.407,0,-4.2709,-4.2771,-4.2903,-4.2958,-4.3017,-4.3105,-4.3167,-4.3249,-4.3312,-4.343,-4.3477,-4.358,-4.3666,-4.382,-4.3904,-4.4003,-4.4022,-4.4051,-4.4036,-4.4015,-4.402,-4.4015,-4.4021,-4.405,-4.405,-4.405,-4.405,0,-4.2753,-4.2792,-4.288,-4.2983,-4.3057,-4.3141,-4.3227,-4.3269,-4.3367,-4.3435,-4.3537,-4.3604,-4.3736,-4.3837,-4.3946,-4.4007,-4.4045,-4.4055,-4.4069,-4.4047,-4.4015,-4.4032,-4.3961,-4.4051,-4.4051,-4.4051,-4.4051,-4.4051,-4.2772,-4.283,-4.2933,-4.3029,-4.3104,-4.3183,-4.3248,-4.3322,-4.3409,-4.3523,-4.3568,-4.3672,-4.377,-4.392,-4.3983,-4.4065,-4.4069,-4.4089,-4.4094,-4.4097,-4.4094,-4.4004,-4.4086,-4.4086,-4.4086,-4.4086,-4.4086,0,-4.2818,-4.2888,-4.2976,-4.3096,-4.3172,-4.3205,-4.3302,-4.3364,-4.3455,-4.3544,-4.3629,-4.3747,-4.3846,-4.394,-4.4044,-4.4092,-4.4112,-4.4116,-4.4112,-4.4126,-4.4085,-4.4062,-4.4098,-4.4098,-4.4098,-4.4098,-4.4098,-4.4098,-4.2851,-4.2951,-4.3003,-4.3141,-4.3211,-4.3314,-4.3367,-4.3441,-4.3513,-4.3642,-4.3726,-4.3787,-4.3879,-4.3991,-4.4083,-4.4109,-4.4143,-4.4142,-4.4172,-4.4131,-4.4128,-4.4126,-4.4105,-4.415,-4.415,-4.4206,-4.4206,-4.4207]},{"header":{"parameterUnit":"m.s-1","parameterCategory":1,"la1":30.2991,"la2":30.254,"lo1":-89.0895,"lo2":-89.0444,"dy":0.0017,"dx":0.0017,"nx":28,"ny":28,"refTime":"2024-05-17T09:00:00:Z","depth":0,"parameterNumber":3,"parameterNumberName":"V-component_of_WINDS"},"data":[0,0,0,0,0,0,0,0,0,0,0,0,0,0,0,0,0,0,0,0,0,0,0,0,0,0,0,0,0,0,0,0,0,0,0,0,0,0,0,0,0,0,0,0,0,0,0,0,0,0,0,0,0,0,0,0,0,0,6.8579,6.8581,0,6.8709,6.8711,6.8712,6.872,6.8719,6.8717,6.8716,6.8845,6.885,6.8855,0,0,0,0,0,0,0,0,0,0,0,0,0,6.8336,6.8341,6.8579,6.8581,6.8583,6.8709,6.8711,6.8712,6.8721,6.8719,6.8717,6.8715,6.8844,6.885,6.8855,0,0,0,0,0,0,0,0,0,0,0,0,0,6.8451,6.8342,6.8579,6.8602,6.8605,6.8709,6.8711,6.8713,6.8721,6.8719,6.8717,6.8715,6.8842,6.8849,6.8856,6.8944,0,0,6.8878,6.8881,0,0,0,0,0,0,0,0,6.8445,6.846,6.8597,6.8601,6.8605,6.8696,6.8672,6.879,6.8722,6.8677,6.8716,6.8714,6.8797,6.8808,6.8837,6.895,6.8956,6.8879,6.8883,6.8886,6.8888,0,0,0,0,0,0,0,6.8437,6.8455,6.8631,6.8599,6.8604,6.8605,6.8619,6.8695,6.8748,6.8681,6.8682,6.8697,6.8799,6.883,6.884,6.8958,6.8879,6.8885,6.8889,6.8892,6.915,6.9152,0,0,0,0,0,0,6.8425,6.8448,6.8626,6.8634,6.8518,6.8611,6.8627,6.8669,6.8747,6.8757,6.8699,6.8697,6.8819,6.8832,6.8845,6.8953,6.8886,6.8893,6.8897,6.9147,6.915,6.9153,0,0,0,0,0,0,6.842,6.8441,6.8621,6.8542,6.8565,6.8618,6.8665,6.8673,6.8704,6.8761,6.877,6.8721,6.8818,6.8835,6.892,6.8957,6.8896,6.8903,6.9144,6.9148,6.9152,6.917,0,0,0,0,0,0,6.8412,6.8439,6.8473,6.8542,6.8569,6.8695,6.8667,6.8677,6.8717,6.8716,6.8784,6.8793,6.8817,6.8909,6.8927,6.8966,6.8908,6.9141,6.9146,6.915,6.9166,6.9173,6.918,0,0,0,0,0,6.8404,6.8472,6.8475,6.8496,6.8613,6.8697,6.8712,6.8739,6.872,6.8754,6.8791,6.8791,6.8951,6.8918,6.8938,6.898,6.9139,6.9145,6.915,6.9163,6.9172,6.918,0,0,0,0,0,0,6.8405,6.8482,6.8485,6.8579,6.8631,6.8698,6.8743,6.8748,6.8807,6.8803,6.8834,6.8849,6.8933,6.8965,6.8927,6.9069,6.9043,6.9053,6.9045,6.9054,6.9061,6.9051,6.8914,0,0,0,0,0,6.8416,6.8478,6.8542,6.8618,6.8644,6.8689,6.8726,6.8743,6.8799,6.882,6.8863,6.8916,6.8978,6.9018,6.9079,6.9171,6.9186,6.921,6.9217,6.9223,6.9231,6.9282,6.9293,6.9172,6.9172,6.9172,0,0,6.8439,6.8489,6.8526,6.8619,6.8662,6.8725,6.8708,6.8775,6.8822,6.883,6.8913,6.8947,6.9008,6.9097,6.9138,6.9126,6.9268,6.923,6.9234,6.9239,6.9289,6.93,6.931,6.9176,6.9175,6.9174,0,0,6.8514,6.8559,6.8627,6.867,6.8736,6.8765,6.8782,6.8848,6.8871,6.8956,6.8963,6.9019,6.9126,6.9169,6.9205,6.9298,6.9299,6.9316,6.9353,6.9402,6.9412,6.9421,6.9453,6.9464,6.9324,6.9324,6.9324,0,6.8534,6.8631,6.866,6.8728,6.8768,6.8781,6.885,6.889,6.8972,6.8999,6.8985,6.912,6.9162,6.9261,6.9284,6.9313,6.9332,6.9308,6.9408,6.9417,6.9426,6.9457,6.9469,6.9326,6.9326,6.9326,6.9325,0,6.8652,6.8719,6.8766,6.8845,6.8891,6.8959,6.8998,6.9041,6.9055,6.9085,6.9171,6.9222,6.9293,6.9318,6.9331,6.942,6.941,6.9402,6.9375,6.9438,6.9468,6.948,6.9328,6.9328,6.9327,6.9327,0,0,6.8729,6.8826,6.8842,6.8879,6.8953,6.9004,6.9073,6.9143,6.9179,6.9235,6.9293,6.9384,6.9377,6.9418,6.9436,6.948,6.9549,6.9466,6.9468,6.9479,6.9649,6.9654,6.9667,6.9552,6.9554,6.9556,6.9644,0,6.8812,6.8934,6.8964,6.9068,6.913,6.9143,6.9203,6.9254,6.9285,6.9341,6.9375,6.9439,6.9425,6.945,6.9494,6.9531,6.9583,6.9526,6.9604,6.9607,6.9587,6.9683,6.9688,6.9768,6.9656,6.9658,6.9659,0,6.8923,6.8983,6.9094,6.916,6.9187,6.924,6.9308,6.9362,6.942,6.944,6.9486,6.95,6.9571,6.9543,6.9641,6.9601,6.9635,6.9658,6.9662,6.9669,6.9635,6.9691,6.9795,6.9806,6.9678,6.9676,6.9675,0,6.8967,6.9076,6.9156,6.9187,6.9266,6.9303,6.9338,6.9395,6.9435,6.9494,6.9521,6.9587,6.9623,6.9673,6.9705,6.9681,6.98,6.9774,6.9818,6.9817,6.9841,6.9839,6.995,6.9865,6.9865,6.9865,6.9864,0,6.9055,6.9122,6.9177,6.9226,6.9302,6.9335,6.9409,6.9444,6.9494,6.955,6.9566,6.9618,6.9657,6.9714,6.974,6.9817,6.9833,6.985,6.9856,6.9848,6.9846,6.987,6.9865,6.9868,6.9867,6.9867,6.9866,0,6.9117,6.9156,6.9245,6.9313,6.9332,6.9385,6.9443,6.9491,6.9523,6.9594,6.9612,6.9662,6.973,6.9767,6.9853,6.987,6.9956,6.9959,6.9936,6.9938,6.9979,6.9975,7.0109,7.0128,7.0031,7.0032,7.0033,0,6.917,6.9222,6.9296,6.9335,6.9371,6.9433,6.9475,6.951,6.9553,6.9625,6.9664,6.9734,6.9791,6.99,6.9943,7.0009,7.0013,7.0055,7.0022,7.0013,7.0012,7.0008,7.0014,7.006,7.0061,7.0062,7.0063,0,6.9259,6.9276,6.9337,6.9404,6.9454,6.9509,6.9563,6.9594,6.9637,6.9685,6.9755,6.98,6.9888,6.9957,7.0026,7.0061,7.0069,7.0073,7.0086,7.0078,7.0062,7.0071,6.9951,7.0069,7.0068,7.0068,7.0068,7.0067,6.9318,6.9364,6.9424,6.9491,6.9535,6.9586,6.9634,6.9673,6.9733,6.9807,6.9825,6.9899,6.9957,7.0051,7.0088,7.0146,7.0138,7.0157,7.0162,7.0166,7.0167,7.0054,7.0159,7.0159,7.0159,7.0159,7.0159,0,6.9407,6.9446,6.9508,6.9583,6.9635,6.964,6.97,6.9743,6.9809,6.9862,6.9919,7.0,7.0067,7.0117,7.0185,7.0222,7.0228,7.0239,7.0236,7.0244,7.0171,7.0152,7.0233,7.0233,7.0233,7.0233,7.0233,7.0233,6.946,6.9539,6.9564,6.9665,6.9704,6.9778,6.9811,6.9858,6.9901,6.9991,7.0047,7.0079,7.0131,7.0204,7.0265,7.0278,7.0302,7.0313,7.0326,7.0257,7.0249,7.0241,7.0223,7.0318,7.0318,7.0393,7.0394,7.0394]}]]